Погода в Кадошкино

Россия / Республика Мордовия     54°01′34″N   44°25′00″E
темп.,
°C
ветер,
м/с
пор.,
м/с
влажн.,
%
обл.,
%
осадки,
мм/ч
давл.,
гПа
погр.,
м
27 сентября, пн
пн2700:00+9ссв51095100 0.2 1006407
03:00+9ссв6119499 0.4 1008498
06:00+8с61293100 0.2 1010480
09:00+9с7118281 0.3 1011555
12:00+10с71083100 0.0 1013828
15:00+8с6989100 0.3 1014737
18:00+7св5791100 0.9 10161010
21:00+5св5895100 1.1 1018744
28 сентября, вт
вт2800:00+5св61095100 0.3 1019817
03:00+5св61090100 0.4 1021726
06:00+4св61087100 0.0 1023913
09:00+4св6108366 0.0 1025754
12:00+7св686144 0.0 10261194
15:00+9св68505 0.0 10271323
18:00+5ссв4864100 0.0 1029172
21:00+3ссв38755 0.0 1031163
29 сентября, ср
ср2900:00+2ссв35795 0.0 103177
03:00+1с3581100 0.0 103284
06:00+1ссв378393 0.0 1033139
09:00+5св466335 0.0 1033501
12:00+9св45505 0.0 10321260
15:00+9ссв45476 0.0 10321450
18:00+6ссв33625 0.0 103227
21:00+4ссв22685 0.0 103316
30 сентября, чт
чт3000:00+3ссв22715 0.0 103413
03:00+2с22765 0.0 103413
06:00+2с227927 0.0 103514
09:00+6ссв23615 0.0 1035324
12:00+10ссв23516 0.0 10351178
15:00+11ссв235061 0.0 10341441
18:00+7с1166100 0.0 103410
21:00+6зсз226993 0.0 103411
1 октября, пт
пт100:00+7з356999 0.0 1035123
03:00+6зсз3673100 0.0 1035172
06:00+6зсз3876100 0.0 1034237
09:00+9сз467587 0.0 1034322
12:00+12сз4670100 0.0 1034708
15:00+13сз345884 0.0 10341010
18:00+10зсз36747 0.0 103493
21:00+8сз33815 0.0 103531